Flag for Brazil Past Weather in São José do Rio Preto, São Paulo, Brazil — Yesterday and Last 2 Weeks

73 °F


Feels Like: 72 °F
Forecast: 72 / 90 °F
Wind: 5 mph from East

Location: Leite Lopes / Ribeir

Current Time: Oct 26, 2016 at 2:04:02 AM

Latest Report: Oct 26, 2016 at 1:00 AM

Visibility: 10 mi

Pressure: 29.92 "Hg (28.23 "Hg at 503m altitude)

Humidity: 89%

Dew Point: 70 °F

Location of São José do Rio PretoLocation

Past Weather in São José do Rio Preto — Graph


São José do Rio Preto Temperature Yesterday

Maximum temperature yesterday: 88 °F (at 2:00 PM)
Minimum temperature yesterday: 70 °F (at 5:00 AM)
Average temperature yesterday: 77 °F

High & Low Weather Summary for the Past Weeks

High99 °F (Oct 17, 3:00 PM)100% (Oct 11, 4:00 PM)30.12 "Hg (Oct 11, 4:00 PM)
Low48 °F (Oct 11, 4:00 PM)25% (Oct 17, 3:00 PM)29.77 "Hg (Oct 19, 4:00 PM)
Average78 °F72%29.95 "Hg
* Reported Oct 11 12:00 AM — Oct 26 1:00 AM, São José do Rio Preto, Weather by CustomWeather, © 2016

Note: Actual official high and low records may vary slightly from our data, if they occured in-between our weather recording intervals... More about our weather records


São José do Rio Preto Weather History for the Previous 24 Hours

Scroll right to see more
Time TempWeatherWind HumidityBarometerVisibility
1:00 AM
Wed, Oct 26
73 °FClear.5 mph89%29.92 "Hg10 mi
12:00 AM73 °FClear.6 mph89%29.92 "Hg10 mi
11:00 PM
Tue, Oct 25
73 °FClear.No wind89%29.95 "Hg10 mi
10:00 PM75 °FClear.5 mph83%29.92 "Hg10 mi
9:00 PM77 °FClear.8 mph79%29.92 "Hg10 mi
8:00 PM79 °FClear.8 mph74%29.89 "Hg10 mi
7:00 PM81 °FPassing clouds.10 mph70%29.89 "HgN/A
6:00 PM84 °FPartly sunny.9 mph66%29.86 "HgN/A
5:00 PM86 °FScattered clouds.13 mph59%29.86 "HgN/A
4:00 PM86 °FScattered clouds.16 mph62%29.89 "HgN/A
3:00 PM86 °FScattered showers. Scattered clouds.9 mph59%29.89 "HgN/A
2:00 PM88 °FScattered clouds.8 mph52%29.92 "HgN/A
1:00 PM86 °FScattered clouds.7 mph59%29.92 "HgN/A
11:00 AM79 °FOvercast.10 mph74%29.98 "HgN/A
10:00 AM77 °FMore clouds than sun.14 mph79%29.98 "HgN/A
9:00 AM75 °FSunny.14 mph78%29.95 "Hg10 mi
8:00 AM72 °FSunny.13 mph88%29.92 "Hg10 mi
7:00 AM70 °FSunny.9 mph94%29.92 "Hg10 mi
6:00 AM70 °FClear.9 mph94%29.89 "Hg10 mi
5:00 AM70 °FClear.12 mph94%29.89 "Hg10 mi
4:00 AM72 °FClear.7 mph88%29.92 "Hg10 mi
3:00 AM72 °FLight rain. Partly cloudy.12 mph88%29.92 "HgN/A
2:00 AM72 °FPassing clouds.3 mph88%29.92 "HgN/A
Weather by CustomWeather, © 2016

See weather overviewHow to use our weather pages